Погода в Многовершинном

Россия / Хабаровский край     53°56′01″N   139°55′26″E
темп.,
°C
ветер,
м/с
пор.,
м/с
влажн.,
%
обл.,
%
осадки,
мм/ч
давл.,
гПа
погр.,
м
17 мая, пн
пн1701:00−3зсз349768 0.1 100099
04:00−2зсз359476 0.1 1001291
07:000зсз348449 0.0 1002372
10:00+4сз356414 0.0 1002788
13:00+6ссз236655 0.0 1001713
16:00+5всв227237 0.0 1000558
19:00+2в3385100 0.0 1000178
22:00+1всв228996 0.6 100186
18 мая, вт
вт1801:00+2ююв118819 0.1 100148
04:00−1ссз229745 0.1 100231
07:00+1ссз2396100 0.0 1003167
10:00+2ссв1194100 1.1 1003183
13:00+3в2291100 1.5 1003419
16:00+2всв1298100 3.6 1003138
19:00+1вюв1299100 0.3 1004113
22:00+1ююв239899 0.3 1003120
19 мая, ср
ср1901:000ююз119884 0.0 100331
04:00+1юз1199100 0.0 100322
07:00+3ююз1295100 0.0 1003132
10:00+8зсз167425 0.0 1003726
13:00+10зсз48518 0.0 10031262
16:00+10ссз2545100 0.0 10041158
19:00+7с2465100 0.0 1006597
22:00+4ююз34783 0.2 100854
20 мая, чт
чт2001:00+3юз35845 0.0 100984
04:00+3юз3376100 0.0 100940
07:00+6ю2365100 0.0 1007108
10:00+8вюв2356100 0.0 1004258
13:00+3в1291100 2.1 1003112
16:00+9ююв128493 2.2 100095
19:00+8сз359052 0.2 1001291
22:00+2сз3495100 0.2 1005119
21 мая, пт
пт2101:00+1ссз2596100 0.0 1006339
04:00+1ссз249797 0.0 1007286
07:00+1сз239292 0.0 1008378
10:00+4зсз357682 0.0 1007742
13:00+4зсз389299 0.2 1008767
16:00+4зсз368329 0.3 1010579
19:00+8зсз49622 0.0 10101055
22:00+4з34783 0.0 101246